Theta_e
315 314 313 312 313 313 317 317 321 324 324 330 330 328 332 329 329 330 329 334 334 335 334 331 333 330 324 326 324 323 320 313 312 311 307 306 311 312
311 310 308 307 306 305 307 315 315 318 320 320 321 320 328 330 328 330 327 328 331 332 334 332 331 326 324 324 323 321 317 313 311 309 305 309 312 314
307 306 306 305 305 304 303 306 313 313 315 315 315 313 318 330 330 330 327 327 329 332 333 332 330 324 324 323 322 320 316 313 311 307 305 311 313 312
305 305 304 304 303 303 304 305 308 311 313 313 314 313 314 327 332 331 332 330 329 330 332 331 329 325 324 322 321 318 315 310 309 307 306 311 313 312
303 302 302 302 303 305 306 306 305 307 309 312 313 313 314 318 325 329 330 329 330 331 331 330 329 325 324 323 320 317 313 307 307 306 307 312 313 312
302 301 301 302 303 305 306 307 307 308 310 312 313 312 313 314 319 323 327 329 328 330 329 327 325 325 323 322 322 318 312 306 307 304 309 312 313 313
301 301 301 301 303 305 306 307 308 308 309 312 313 313 313 315 315 314 321 326 327 327 326 327 326 324 323 322 322 318 312 306 308 304 309 312 314 313
300 300 300 301 303 304 304 306 308 308 309 310 311 313 313 313 311 310 316 324 325 326 326 324 325 325 323 323 321 319 315 305 308 304 310 310 311 309
300 300 300 300 300 301 302 303 304 308 308 309 311 309 307 307 305 307 309 313 320 319 322 322 323 323 323 321 319 319 316 305 310 303 310 309 310 308
299 300 299 299 298 299 300 301 301 303 305 304 303 302 302 303 303 303 305 311 315 316 316 324 323 321 322 320 317 315 312 307 309 302 310 309 309 309
299 299 299 298 298 298 299 299 300 299 299 299 300 300 301 301 302 302 304 308 313 316 316 317 320 318 318 320 315 313 311 308 307 302 310 309 309 310
298 298 298 298 297 297 298 298 297 298 297 298 299 299 299 299 300 300 301 305 311 315 320 320 321 315 313 315 316 313 310 306 306 302 310 308 309 310
297 297 297 297 297 297 297 297 296 296 296 296 296 297 298 298 299 300 301 302 307 312 316 316 318 317 313 308 312 312 308 307 307 302 310 310 310 310
298 297 297 297 297 297 298 297 296 296 295 295 295 296 298 299 299 300 302 304 306 308 309 313 315 320 314 306 307 308 305 305 307 304 310 311 311 311
297 297 296 296 295 295 296 296 295 295 294 294 294 296 298 299 299 300 300 302 305 308 311 314 312 316 320 314 309 306 305 304 304 308 310 312 312 312
296 296 296 296 296 295 295 295 294 294 294 294 295 296 299 299 299 300 301 303 307 309 311 312 315 318 321 319 316 308 310 308 304 310 312 312 311 311
294 294 295 295 295 295 295 295 294 294 294 294 294 295 299 300 300 300 301 302 306 308 312 314 316 318 319 321 315 311 308 306 307 310 311 311 310 309
292 293 294 295 295 295 295 294 294 294 294 294 294 294 298 300 300 301 301 302 304 306 310 315 318 318 318 317 316 313 309 307 309 311 311 309 307 307
290 292 293 294 294 294 295 294 294 294 294 294 294 295 296 298 300 302 302 303 304 307 309 313 317 318 316 317 313 314 310 309 310 310 311 309 308 308
290 291 293 293 293 294 294 294 294 294 294 294 295 295 296 298 300 300 302 304 304 307 310 314 315 317 317 315 313 313 313 310 310 309 308 307 307 307
290 290 291 292 293 294 294 294 295 295 295 295 296 296 297 299 299 300 300 303 304 304 308 311 313 315 317 317 313 310 312 311 311 309 309 307 305 304
288 289 289 290 292 292 293 294 294 295 295 296 296 296 297 297 298 299 299 300 301 302 304 308 312 315 316 316 311 309 309 310 311 312 312 310 308 305
287 288 288 289 290 291 292 293 294 295 295 296 297 297 297 298 298 299 300 300 301 301 304 308 310 314 314 316 311 307 306 306 306 308 308 310 311 313
Wind_Speed
12 14 15 16 16 17 17 18 9 5 4 8 12 27 23 16 15 11 9 6 9 10 16 19 18 18 17 15 12 10 7 4 5 7 7 13 16 13
11 14 16 19 19 19 17 17 15 10 4 16 22 25 27 12 10 9 5 7 17 16 16 21 18 17 15 13 10 9 7 4 6 5 8 13 13 12
11 15 18 21 23 22 19 15 15 15 6 18 24 25 26 23 14 13 8 11 15 11 17 18 18 13 14 12 10 10 7 5 5 3 8 12 11 12
13 17 22 25 23 19 18 16 15 14 13 15 25 28 26 24 13 14 13 11 9 7 17 12 13 11 12 10 10 9 7 6 3 4 8 11 8 11
13 18 23 21 20 18 17 18 17 16 15 16 20 23 24 19 19 11 9 10 11 9 17 18 15 11 10 9 11 9 7 6 3 3 7 9 7 10
13 17 20 17 17 19 18 16 17 17 16 17 18 20 19 18 15 15 10 7 9 14 17 14 13 13 13 11 9 9 9 8 5 2 6 7 6 10
15 17 16 16 13 13 14 14 15 16 17 17 15 16 15 18 17 18 14 14 13 15 16 17 15 17 17 16 12 10 11 10 6 3 6 5 5 9
14 14 14 13 12 11 12 12 11 13 14 14 12 11 12 14 16 18 17 5 3 14 16 16 15 17 18 18 16 13 13 12 6 2 6 3 5 8
11 12 11 12 13 14 13 14 12 7 7 9 8 8 12 15 20 19 17 16 6 13 9 10 15 18 18 16 14 14 14 13 6 2 5 0 3 7
10 11 11 12 13 15 14 13 15 8 7 9 11 14 15 17 18 20 20 19 15 8 9 3 9 14 16 14 12 14 16 13 7 3 3 3 4 6
11 10 11 12 16 15 14 15 15 10 10 15 18 18 20 19 18 20 22 17 8 3 5 5 5 8 10 14 14 15 16 13 9 5 6 7 3 4
14 13 13 14 16 16 14 14 17 18 22 26 27 26 21 21 21 17 16 16 11 5 4 4 8 6 3 9 16 17 18 14 11 7 9 10 7 2
15 15 16 15 15 16 15 15 14 17 23 26 27 26 23 21 19 18 15 16 16 12 11 9 5 7 1 3 12 19 21 18 14 12 12 12 10 3
20 20 17 15 18 19 18 18 19 20 27 28 25 23 20 18 16 12 12 14 16 21 18 12 7 6 7 6 6 18 20 17 14 14 13 11 9 5
19 19 23 20 22 22 21 21 23 23 22 20 22 22 19 17 17 14 13 14 14 15 15 14 15 16 16 11 8 13 18 20 18 15 13 11 10 6
21 21 20 23 24 25 24 23 20 17 17 20 21 22 20 17 16 14 14 10 11 11 13 14 15 15 17 19 17 15 22 14 26 19 17 14 10 7
23 24 21 19 18 17 17 19 19 19 17 19 20 17 16 16 15 12 12 10 9 5 6 10 13 13 13 15 14 17 26 16 30 24 22 16 10 7
23 17 17 17 17 17 17 17 16 17 17 18 18 17 14 13 16 14 11 12 11 8 5 6 9 8 5 6 15 22 24 20 29 28 24 18 13 9
18 18 18 17 17 17 17 16 16 16 16 15 15 15 13 12 12 12 11 9 10 10 8 7 12 11 3 3 4 14 22 27 31 26 24 16 13 11
17 17 16 16 17 17 16 16 16 16 15 14 14 15 15 13 11 10 9 10 7 6 5 5 13 18 11 7 8 15 23 26 32 27 23 14 12 11
17 16 18 17 17 18 17 17 16 15 14 12 13 12 13 12 9 9 8 8 8 8 8 5 9 13 16 11 6 8 17 26 24 30 28 19 14 10
19 19 19 20 19 17 17 17 16 15 14 14 14 14 12 11 11 12 11 12 11 11 12 12 7 11 19 13 11 15 19 20 21 26 25 13 14 9
21 20 19 20 19 18 17 15 16 16 15 14 13 12 10 10 11 11 12 13 13 11 10 11 9 16 16 15 20 22 20 26 22 23 17 7 10 4
Wind_Direction
14 9 9 3 359 1 4 6 340 327 321 348 348 343 324 299 301 274 287 308 287 235 209 213 210 198 210 198 208 225 234 257 283 301 327 322 325 335
9 4 359 354 347 345 346 348 356 340 301 327 329 336 335 268 288 291 295 326 300 274 221 206 198 205 190 201 213 233 237 256 280 313 330 328 330 342
3 359 353 346 340 335 330 328 335 348 309 317 330 342 346 339 267 286 285 290 313 291 209 187 190 195 192 204 218 233 240 258 278 327 337 330 330 353
359 351 344 338 334 331 329 322 320 323 324 309 325 336 343 348 305 290 269 262 267 274 193 190 204 197 195 210 222 233 247 250 272 337 343 329 347 344
355 347 342 334 331 334 332 321 314 314 314 310 309 321 334 348 350 305 287 251 215 227 205 195 198 204 218 232 246 237 251 249 262 342 329 341 350 333
337 341 342 335 329 327 325 322 320 317 319 314 309 314 324 340 349 353 303 241 190 193 196 201 206 213 220 228 268 239 245 248 265 325 334 342 335 324
339 340 339 336 327 324 318 314 315 315 317 319 313 312 323 339 351 343 331 296 221 205 199 196 218 233 229 228 240 250 241 241 253 318 331 325 320 324
336 336 344 348 343 340 338 337 308 296 301 309 311 315 315 328 341 352 339 318 279 217 207 212 213 229 236 233 234 236 237 230 235 298 314 342 344 348
310 323 335 345 342 344 339 335 336 321 295 310 345 2 336 332 332 334 333 336 347 331 231 208 220 230 234 234 231 224 226 222 221 231 305 330 359 25
309 305 310 336 341 337 335 322 331 333 336 336 336 332 330 324 325 320 315 320 318 321 9 278 213 224 226 223 222 211 214 212 215 191 263 194 107 37
306 292 294 303 319 325 329 329 313 329 322 320 320 312 307 307 309 315 315 329 317 349 358 334 242 197 199 205 206 200 207 207 208 194 226 190 188 46
298 295 290 301 301 304 306 320 322 316 322 318 311 309 307 306 294 290 297 291 292 317 104 28 251 182 146 207 203 197 196 200 208 202 221 213 233 9
290 293 294 296 295 291 291 298 304 313 315 314 306 300 301 307 304 283 275 274 270 262 261 291 277 297 110 178 199 198 195 200 203 212 220 223 227 228
290 292 291 296 300 296 286 290 291 300 308 308 304 304 302 307 313 293 273 267 266 261 279 267 264 267 194 160 201 196 195 203 206 214 217 209 208 210
287 287 294 296 299 297 288 287 295 299 302 295 297 298 297 301 303 296 291 273 281 257 261 252 261 269 245 215 203 188 184 204 205 203 205 193 193 167
291 289 289 288 288 288 283 286 285 279 277 282 289 297 298 292 291 299 295 288 292 242 232 242 254 250 244 234 224 199 188 180 194 189 178 174 184 189
300 292 283 278 269 266 266 269 271 278 266 269 278 287 283 281 282 292 285 288 284 278 213 226 207 232 242 244 215 220 185 187 180 174 173 170 168 156
298 284 277 267 263 266 262 263 263 258 258 263 268 273 280 271 276 283 277 271 272 276 286 227 196 182 214 239 227 200 185 182 174 174 173 164 159 165
288 278 274 271 269 268 265 261 260 258 259 256 260 259 264 277 277 281 272 262 269 274 262 244 202 205 166 210 198 210 181 176 165 169 179 176 173 172
302 291 273 275 276 269 267 265 265 260 258 255 250 253 254 250 255 272 290 258 272 300 259 223 213 211 203 201 180 180 198 179 168 167 168 158 156 167
304 305 300 284 283 276 271 267 262 259 258 253 251 249 249 239 239 258 279 276 276 284 290 284 243 231 224 206 137 122 174 192 187 175 171 153 152 165
305 303 305 296 288 284 281 264 262 261 263 258 249 252 256 249 251 248 255 264 269 277 278 282 283 210 191 191 152 145 143 156 186 187 180 167 167 173
309 300 301 299 289 288 274 279 259 260 259 251 244 243 252 245 249 249 256 262 262 277 282 279 266 207 196 195 157 154 157 151 155 155 162 168 166 172